QPF
0.00 0.00 0.00 0.00 0.00 0.00 0.00 0.00 0.00 0.00 0.00 0.00 0.00 0.00 0.00 0.00 0.00 0.00 0.00 0.00 0.00 0.00 0.01 0.02 0.02 0.03 0.04 0.02 0.01 0.01 0.00 0.00 0.00 0.00 0.00 0.00 0.00 0.01 0.01 0.02 0.02 0.00 0.00
0.00 0.00 0.00 0.00 0.00 0.00 0.00 0.00 0.00 0.00 0.00 0.00 0.00 0.00 0.00 0.00 0.00 0.00 0.00 0.00 0.00 0.00 0.00 0.00 0.00 0.01 0.02 0.01 0.00 0.00 0.00 0.00 0.00 0.00 0.00 0.00 0.00 0.00 0.01 0.01 0.02 0.01 0.00
0.00 0.00 0.00 0.00 0.00 0.00 0.00 0.00 0.00 0.00 0.00 0.00 0.00 0.00 0.00 0.00 0.00 0.00 0.00 0.00 0.00 0.00 0.00 0.00 0.00 0.00 0.00 0.00 0.00 0.00 0.00 0.00 0.00 0.00 0.00 0.00 0.00 0.00 0.00 0.00 0.02 0.03 0.01
0.00 0.00 0.00 0.00 0.00 0.00 0.00 0.00 0.00 0.00 0.00 0.00 0.00 0.00 0.00 0.00 0.00 0.00 0.00 0.00 0.00 0.00 0.00 0.00 0.00 0.00 0.00 0.00 0.00 0.00 0.00 0.00 0.00 0.00 0.00 0.00 0.00 0.00 0.00 0.00 0.00 0.02 0.03
0.00 0.00 0.00 0.00 0.00 0.00 0.00 0.00 0.00 0.00 0.00 0.00 0.00 0.00 0.00 0.00 0.00 0.00 0.00 0.00 0.00 0.00 0.00 0.00 0.00 0.00 0.00 0.00 0.00 0.00 0.00 0.00 0.00 0.00 0.00 0.01 0.00 0.00 0.00 0.00 0.00 0.00 0.02
0.00 0.00 0.00 0.00 0.00 0.00 0.00 0.00 0.00 0.00 0.00 0.00 0.00 0.00 0.00 0.00 0.00 0.00 0.00 0.00 0.00 0.00 0.00 0.00 0.00 0.00 0.00 0.00 0.00 0.00 0.00 0.00 0.00 0.00 0.00 0.01 0.00 0.00 0.00 0.00 0.01 0.00 0.00
0.00 0.00 0.00 0.00 0.00 0.00 0.00 0.00 0.00 0.00 0.00 0.00 0.00 0.00 0.00 0.00 0.00 0.00 0.00 0.00 0.00 0.00 0.00 0.00 0.00 0.00 0.00 0.00 0.00 0.00 0.00 0.00 0.00 0.00 0.00 0.00 0.00 0.00 0.01 0.01 0.01 0.00 0.00
0.00 0.00 0.00 0.00 0.00 0.00 0.00 0.00 0.00 0.00 0.00 0.00 0.00 0.00 0.00 0.00 0.00 0.00 0.00 0.00 0.00 0.00 0.00 0.00 0.00 0.00 0.00 0.00 0.00 0.00 0.00 0.00 0.00 0.00 0.00 0.00 0.00 0.00 0.00 0.01 0.02 0.01 0.00
0.00 0.00 0.00 0.00 0.00 0.00 0.00 0.00 0.00 0.00 0.00 0.00 0.00 0.00 0.00 0.00 0.00 0.00 0.00 0.00 0.00 0.00 0.00 0.00 0.00 0.00 0.00 0.00 0.00 0.00 0.00 0.00 0.00 0.00 0.00 0.00 0.00 0.00 0.00 0.00 0.00 0.01 0.00
0.00 0.00 0.00 0.00 0.00 0.00 0.00 0.00 0.00 0.00 0.00 0.00 0.00 0.00 0.00 0.00 0.00 0.00 0.00 0.00 0.00 0.00 0.00 0.00 0.00 0.00 0.00 0.00 0.00 0.00 0.00 0.00 0.00 0.00 0.00 0.00 0.00 0.00 0.00 0.00 0.00 0.00 0.00
0.00 0.00 0.00 0.00 0.00 0.00 0.00 0.00 0.00 0.00 0.00 0.00 0.00 0.00 0.00 0.00 0.00 0.00 0.00 0.00 0.00 0.00 0.00 0.00 0.00 0.00 0.00 0.00 0.00 0.00 0.00 0.00 0.00 0.00 0.00 0.00 0.00 0.00 0.00 0.00 0.00 0.00 0.00
0.00 0.00 0.00 0.00 0.00 0.00 0.00 0.00 0.00 0.00 0.00 0.00 0.00 0.00 0.00 0.00 0.00 0.00 0.00 0.00 0.00 0.00 0.00 0.00 0.00 0.00 0.00 0.00 0.00 0.00 0.00 0.00 0.00 0.00 0.00 0.00 0.00 0.00 0.00 0.00 0.00 0.00 0.00
0.00 0.00 0.00 0.00 0.00 0.00 0.00 0.00 0.00 0.00 0.00 0.00 0.00 0.00 0.00 0.00 0.00 0.00 0.00 0.00 0.00 0.00 0.00 0.00 0.00 0.00 0.00 0.00 0.00 0.00 0.00 0.00 0.00 0.00 0.00 0.00 0.00 0.00 0.00 0.00 0.00 0.00 0.00
0.00 0.00 0.00 0.00 0.00 0.00 0.00 0.00 0.00 0.00 0.00 0.00 0.00 0.00 0.00 0.00 0.00 0.00 0.00 0.00 0.00 0.00 0.00 0.00 0.00 0.00 0.00 0.00 0.00 0.00 0.00 0.00 0.00 0.00 0.00 0.00 0.00 0.00 0.00 0.00 0.00 0.00 0.00
0.00 0.00 0.00 0.00 0.00 0.00 0.00 0.00 0.00 0.00 0.00 0.00 0.00 0.00 0.00 0.00 0.00 0.00 0.00 0.00 0.00 0.00 0.00 0.00 0.00 0.00 0.00 0.00 0.00 0.00 0.00 0.00 0.00 0.00 0.00 0.00 0.00 0.00 0.00 0.00 0.00 0.00 0.00
0.00 0.00 0.00 0.00 0.00 0.00 0.00 0.00 0.00 0.00 0.00 0.00 0.00 0.00 0.00 0.00 0.00 0.00 0.00 0.00 0.00 0.00 0.00 0.00 0.00 0.00 0.00 0.00 0.00 0.00 0.00 0.00 0.00 0.00 0.00 0.00 0.00 0.00 0.00 0.00 0.00 0.00 0.00
0.00 0.00 0.00 0.00 0.00 0.00 0.00 0.00 0.00 0.00 0.00 0.00 0.00 0.00 0.00 0.00 0.00 0.00 0.00 0.00 0.00 0.00 0.00 0.00 0.00 0.00 0.00 0.00 0.00 0.00 0.00 0.00 0.00 0.00 0.00 0.00 0.00 0.00 0.00 0.00 0.00 0.00 0.00
0.00 0.00 0.00 0.00 0.00 0.00 0.00 0.00 0.00 0.00 0.00 0.00 0.00 0.00 0.00 0.00 0.00 0.00 0.00 0.00 0.00 0.00 0.00 0.00 0.00 0.00 0.00 0.00 0.00 0.00 0.00 0.00 0.00 0.00 0.00 0.00 0.00 0.00 0.00 0.00 0.00 0.00 0.00
0.00 0.00 0.00 0.00 0.00 0.00 0.00 0.00 0.00 0.00 0.00 0.00 0.00 0.00 0.00 0.00 0.00 0.00 0.00 0.00 0.00 0.00 0.00 0.00 0.00 0.00 0.00 0.00 0.00 0.00 0.00 0.00 0.00 0.00 0.00 0.00 0.00 0.00 0.00 0.00 0.00 0.00 0.00
0.00 0.00 0.00 0.00 0.00 0.00 0.00 0.00 0.00 0.00 0.00 0.00 0.00 0.00 0.00 0.00 0.00 0.00 0.00 0.00 0.00 0.00 0.00 0.00 0.00 0.00 0.00 0.00 0.00 0.00 0.00 0.00 0.00 0.00 0.00 0.00 0.00 0.00 0.00 0.00 0.00 0.00 0.00
0.00 0.00 0.00 0.00 0.00 0.00 0.00 0.00 0.00 0.00 0.00 0.00 0.00 0.00 0.00 0.00 0.00 0.00 0.00 0.00 0.00 0.00 0.00 0.00 0.00 0.00 0.00 0.00 0.00 0.00 0.00 0.00 0.00 0.00 0.00 0.00 0.00 0.00 0.00 0.00 0.00 0.00 0.00
0.00 0.00 0.00 0.00 0.00 0.00 0.00 0.00 0.00 0.00 0.00 0.00 0.00 0.00 0.00 0.00 0.00 0.00 0.01 0.02 0.03 0.04 0.02 0.01 0.01 0.01 0.01 0.00 0.00 0.00 0.00 0.00 0.00 0.00 0.00 0.00 0.00 0.00 0.00 0.00 0.00 0.00 0.00
0.00 0.00 0.00 0.00 0.00 0.00 0.00 0.00 0.00 0.00 0.01 0.01 0.01 0.01 0.01 0.00 0.00 0.00 0.01 0.01 0.01 0.02 0.04 0.06 0.07 0.04 0.03 0.01 0.01 0.00 0.00 0.00 0.00 0.00 0.00 0.00 0.00 0.00 0.00 0.00 0.00 0.00 0.00
0.00 0.00 0.00 0.00 0.00 0.00 0.00 0.00 0.00 0.01 0.01 0.01 0.00 0.00 0.00 0.00 0.00 0.00 0.00 0.00 0.00 0.00 0.00 0.00 0.00 0.00 0.00 0.00 0.00 0.00 0.00 0.00 0.00 0.00 0.00 0.01 0.00 0.00 0.00 0.00 0.00 0.00 0.00
0.00 0.00 0.00 0.00 0.00 0.00 0.00 0.00 0.00 0.01 0.01 0.00 0.00 0.00 0.00 0.00 0.00 0.00 0.01 0.00 0.00 0.00 0.00 0.00 0.01 0.01 0.02 0.02 0.02 0.03 0.05 0.03 0.01 0.00 0.00 0.01 0.00 0.00 0.00 0.00 0.00 0.00 0.00
0.00 0.00 0.00 0.00 0.00 0.00 0.00 0.00 0.00 0.00 0.00 0.00 0.00 0.00 0.00 0.00 0.01 0.01 0.02 0.03 0.03 0.01 0.01 0.00 0.00 0.00 0.00 0.00 0.00 0.00 0.01 0.01 0.00 0.00 0.00 0.00 0.00 0.00 0.00 0.00 0.00 0.00 0.00
MSLP
1024.64 1024.77 1024.84 1024.90 1024.91 1024.88 1024.63 1024.44 1024.41 1024.36 1024.41 1024.40 1024.41 1024.48 1024.42 1024.33 1024.28 1024.19 1024.17 1023.92 1023.33 1022.75 1022.58 1022.28 1021.71 1021.47 1021.41 1021.46 1021.18 1021.13 1021.04 1020.97 1020.81 1020.58 1020.58 1020.57 1020.65 1020.81 1020.97 1021.16 1021.39 1021.59 1021.76
1024.93 1025.14 1025.23 1025.27 1025.31 1025.25 1025.20 1025.10 1024.85 1024.77 1024.78 1024.68 1024.92 1024.97 1024.93 1024.94 1024.52 1024.63 1024.72 1025.08 1024.53 1023.85 1023.65 1023.49 1022.99 1022.76 1022.40 1022.21 1022.00 1021.86 1021.76 1021.65 1021.44 1021.21 1021.02 1020.79 1020.72 1020.68 1020.91 1021.12 1021.27 1021.41 1021.70
1025.27 1025.51 1025.64 1025.69 1025.80 1025.80 1025.55 1025.31 1025.10 1025.06 1025.16 1025.19 1025.18 1025.23 1025.04 1025.01 1025.03 1025.21 1025.49 1025.48 1025.36 1025.29 1025.18 1024.73 1024.24 1023.89 1023.52 1023.03 1022.85 1022.63 1022.47 1022.36 1022.04 1021.73 1021.55 1021.24 1021.02 1020.91 1020.71 1020.98 1021.13 1021.26 1021.53
1025.67 1025.66 1025.63 1025.78 1025.93 1025.88 1025.73 1025.68 1025.43 1025.20 1025.26 1025.19 1025.17 1025.26 1025.15 1025.50 1025.48 1025.74 1026.04 1026.07 1026.02 1025.87 1025.98 1025.85 1025.41 1025.13 1024.56 1024.16 1023.83 1023.52 1023.33 1022.98 1022.56 1022.29 1021.94 1021.74 1021.43 1021.28 1021.09 1021.03 1021.08 1021.09 1021.38
1026.13 1026.09 1026.34 1026.58 1026.47 1026.27 1026.17 1025.98 1026.01 1025.76 1025.54 1025.61 1025.77 1025.83 1025.95 1025.93 1026.00 1026.17 1026.39 1026.39 1026.52 1026.29 1026.27 1026.51 1026.29 1026.15 1025.72 1025.14 1024.89 1024.32 1024.05 1023.62 1023.17 1022.88 1022.60 1022.37 1022.08 1021.81 1021.65 1021.45 1021.38 1021.21 1021.31
1026.42 1026.45 1026.67 1026.81 1026.77 1026.60 1026.52 1026.39 1026.19 1026.28 1026.08 1025.94 1026.02 1026.19 1026.26 1026.31 1026.41 1026.48 1026.57 1026.59 1026.73 1026.65 1026.62 1026.53 1026.20 1026.21 1026.52 1026.10 1025.67 1025.22 1024.74 1024.35 1023.85 1023.42 1023.21 1022.87 1022.72 1022.45 1022.22 1022.01 1021.96 1021.70 1021.72
1026.44 1026.59 1026.72 1026.89 1026.87 1026.87 1026.96 1026.95 1026.83 1026.49 1026.59 1026.52 1026.08 1026.32 1026.67 1026.76 1026.69 1026.72 1026.67 1026.71 1026.80 1026.72 1026.66 1026.54 1026.47 1026.27 1026.25 1026.35 1026.20 1025.79 1025.22 1024.64 1024.30 1023.75 1023.51 1023.51 1023.23 1022.91 1022.82 1022.55 1022.43 1022.31 1022.25
1026.58 1026.60 1026.77 1026.95 1027.14 1027.13 1027.17 1027.12 1027.15 1026.84 1026.95 1027.03 1026.18 1025.83 1025.99 1026.81 1026.87 1026.91 1026.89 1026.83 1026.79 1026.75 1026.69 1026.58 1026.53 1026.53 1026.35 1026.28 1026.56 1026.39 1025.86 1025.41 1024.84 1024.38 1024.05 1024.01 1023.68 1023.32 1023.21 1023.04 1023.04 1022.81 1022.69
1026.94 1026.96 1027.09 1027.19 1027.35 1027.42 1027.41 1027.47 1027.51 1027.33 1027.02 1027.31 1027.22 1026.57 1025.97 1025.45 1026.38 1026.91 1026.97 1027.04 1026.98 1026.74 1026.74 1026.70 1026.55 1026.60 1026.62 1026.49 1026.47 1026.24 1026.23 1025.93 1025.57 1025.16 1024.81 1024.57 1024.31 1023.94 1023.61 1023.53 1023.29 1023.13 1023.13
1027.13 1027.41 1027.51 1027.52 1027.66 1027.82 1027.78 1027.84 1027.96 1027.92 1027.68 1027.49 1027.48 1027.50 1027.37 1027.25 1026.46 1026.18 1026.80 1026.91 1026.95 1026.76 1026.73 1026.70 1026.74 1026.84 1026.81 1026.71 1026.75 1026.64 1026.54 1026.23 1026.00 1025.73 1025.31 1024.94 1024.53 1024.37 1024.12 1023.89 1023.68 1023.59 1023.52
1027.27 1027.68 1027.83 1027.97 1028.07 1028.22 1028.37 1028.36 1028.37 1028.28 1028.30 1028.15 1027.98 1027.91 1027.76 1027.60 1027.61 1027.15 1026.28 1026.41 1026.72 1026.97 1027.03 1026.96 1026.83 1026.70 1026.89 1026.79 1026.60 1026.56 1026.70 1026.47 1026.20 1025.78 1025.59 1025.17 1025.05 1024.69 1024.38 1024.20 1024.10 1024.06 1023.90
1027.47 1027.87 1028.20 1028.26 1028.35 1028.53 1028.63 1028.71 1028.73 1028.68 1028.64 1028.64 1028.63 1028.56 1028.25 1027.98 1027.88 1027.81 1027.48 1027.03 1027.00 1026.67 1026.81 1026.72 1026.76 1026.75 1026.92 1026.81 1027.02 1027.06 1026.73 1026.48 1026.26 1026.09 1025.82 1025.52 1025.19 1024.89 1024.72 1024.68 1024.54 1024.38 1024.09
1027.52 1027.87 1028.16 1028.42 1028.51 1028.74 1028.89 1029.02 1028.97 1029.01 1028.96 1028.86 1028.89 1028.84 1028.85 1028.73 1028.76 1028.55 1028.35 1027.83 1027.45 1027.07 1026.87 1026.53 1026.73 1026.89 1027.05 1026.96 1026.88 1027.12 1026.88 1026.69 1026.49 1026.23 1025.96 1025.45 1025.24 1025.21 1025.05 1025.00 1024.64 1024.27 1024.14
1027.45 1027.85 1028.13 1028.44 1028.73 1028.93 1029.07 1029.25 1029.19 1029.20 1029.19 1029.07 1029.03 1029.10 1029.08 1029.06 1029.20 1029.06 1028.74 1028.43 1027.82 1027.29 1026.85 1026.49 1026.61 1026.78 1026.89 1026.94 1027.05 1026.95 1026.34 1026.46 1026.33 1026.16 1025.83 1025.58 1025.39 1025.29 1025.03 1024.75 1024.56 1024.37 1024.17
1027.64 1028.05 1028.27 1028.44 1028.69 1028.92 1029.13 1029.23 1029.12 1029.17 1029.30 1029.25 1029.05 1029.05 1029.12 1029.13 1029.29 1029.22 1029.05 1028.76 1028.36 1027.57 1026.64 1026.35 1026.59 1026.86 1026.98 1026.92 1026.63 1026.54 1026.35 1026.10 1025.89 1025.84 1025.62 1025.48 1025.31 1025.17 1024.94 1024.60 1024.35 1024.03 1023.82
1027.42 1027.79 1028.02 1028.32 1028.59 1028.82 1029.04 1029.15 1029.07 1029.05 1029.15 1029.13 1029.13 1028.98 1028.94 1028.87 1028.90 1028.92 1028.84 1028.68 1028.56 1028.22 1027.47 1026.78 1026.58 1026.58 1026.80 1026.65 1026.48 1026.56 1026.32 1026.09 1025.75 1025.54 1025.39 1025.22 1025.08 1024.88 1024.63 1024.41 1024.23 1023.88 1023.69
1027.48 1027.67 1027.82 1028.05 1028.32 1028.68 1028.91 1028.90 1028.85 1028.88 1028.92 1028.81 1028.78 1028.72 1028.73 1028.65 1028.53 1028.37 1028.39 1028.43 1028.23 1028.03 1027.59 1027.07 1026.95 1026.71 1026.48 1026.21 1025.97 1025.85 1025.72 1025.53 1025.16 1025.04 1024.93 1024.72 1024.53 1024.36 1024.14 1023.86 1023.61 1023.40 1023.20
1027.38 1027.59 1027.73 1027.84 1027.99 1028.22 1028.49 1028.64 1028.65 1028.58 1028.61 1028.60 1028.49 1028.30 1028.29 1028.27 1028.07 1027.92 1027.96 1027.94 1027.77 1027.71 1027.63 1027.20 1026.80 1026.51 1026.15 1025.78 1025.61 1025.46 1025.17 1024.93 1024.74 1024.50 1024.57 1024.47 1024.19 1023.94 1023.63 1023.29 1023.03 1022.84 1022.56
1027.34 1027.52 1027.64 1027.67 1027.69 1027.85 1028.05 1028.21 1028.20 1028.14 1028.11 1028.15 1027.99 1027.91 1027.77 1027.75 1027.56 1027.52 1027.43 1027.33 1027.26 1027.30 1027.27 1027.16 1026.61 1026.32 1025.83 1025.39 1025.11 1024.85 1024.55 1024.22 1024.02 1023.94 1023.95 1023.77 1023.51 1023.28 1023.01 1022.75 1022.45 1022.25 1022.09
1027.31 1027.39 1027.40 1027.47 1027.61 1027.52 1027.75 1027.70 1027.67 1027.63 1027.61 1027.43 1027.46 1027.49 1027.39 1027.36 1027.25 1027.18 1027.04 1026.97 1026.90 1026.89 1026.86 1026.69 1026.57 1026.03 1025.42 1024.84 1024.58 1024.42 1023.92 1023.55 1023.24 1023.07 1022.93 1022.85 1022.79 1022.67 1022.48 1022.21 1021.98 1021.71 1021.61
1027.33 1027.37 1027.37 1027.34 1027.20 1027.31 1027.36 1027.19 1027.26 1027.31 1027.10 1026.89 1026.89 1026.85 1026.79 1026.79 1026.79 1026.76 1026.67 1026.59 1026.46 1026.30 1026.12 1025.85 1025.68 1025.37 1024.84 1024.37 1023.93 1023.60 1023.35 1022.98 1022.56 1022.48 1022.11 1021.80 1021.81 1021.55 1021.32 1021.16 1021.00 1021.02 1021.10
1026.95 1027.22 1027.17 1027.14 1027.08 1027.10 1027.05 1027.10 1027.04 1026.92 1026.63 1026.66 1026.44 1026.24 1026.19 1026.15 1026.10 1025.87 1025.57 1025.63 1025.72 1025.68 1025.23 1025.05 1024.66 1024.39 1023.93 1023.55 1023.43 1023.07 1022.82 1022.39 1021.91 1021.91 1021.38 1020.96 1020.86 1020.57 1020.42 1020.22 1020.12 1020.22 1020.23
1026.56 1026.69 1026.83 1026.89 1027.04 1027.04 1027.10 1027.09 1026.84 1026.21 1026.05 1025.84 1025.74 1025.67 1025.54 1025.38 1025.30 1025.10 1024.93 1024.60 1024.56 1024.37 1024.05 1023.96 1023.63 1023.56 1023.34 1022.96 1022.80 1022.49 1022.19 1021.86 1021.36 1021.13 1021.04 1020.50 1020.49 1019.84 1019.44 1019.19 1019.24 1019.27 1019.33
1026.61 1026.80 1026.86 1026.98 1026.92 1026.79 1026.68 1026.46 1026.10 1025.69 1025.56 1025.23 1025.14 1025.11 1025.03 1024.81 1024.56 1024.43 1024.32 1024.04 1023.80 1023.47 1023.30 1023.09 1022.87 1022.74 1022.53 1022.45 1022.29 1021.98 1021.54 1021.05 1020.72 1020.56 1020.45 1019.51 1019.57 1018.84 1018.58 1018.31 1018.25 1018.21 1018.17
1026.41 1026.52 1026.53 1026.49 1026.45 1026.31 1026.23 1025.95 1025.63 1025.27 1024.85 1024.57 1024.56 1024.32 1024.09 1023.90 1023.74 1023.67 1023.55 1023.40 1023.09 1022.61 1022.28 1022.11 1021.92 1021.72 1021.63 1021.58 1021.64 1021.38 1020.86 1020.51 1019.61 1019.23 1019.08 1018.70 1018.66 1018.07 1018.02 1017.38 1017.03 1016.97 1016.84
1026.12 1026.12 1026.04 1026.02 1025.97 1025.79 1025.55 1025.24 1025.01 1024.79 1024.37 1024.14 1023.78 1023.44 1023.24 1023.07 1022.91 1022.69 1022.60 1022.50 1022.07 1021.68 1021.32 1021.04 1020.76 1020.41 1020.49 1020.37 1020.37 1020.32 1020.25 1019.87 1019.43 1018.66 1018.85 1018.62 1018.21 1017.86 1016.79 1016.20 1015.95 1015.70 1015.51
Thickness
5563 5563 5564 5566 5568 5570 5575 5579 5580 5582 5584 5587 5588 5589 5590 5593 5595 5599 5600 5604 5609 5617 5620 5624 5631 5635 5639 5642 5646 5648 5650 5651 5654 5656 5658 5662 5664 5665 5666 5666 5666 5668 5669
5552 5552 5553 5555 5557 5559 5562 5565 5569 5571 5573 5575 5576 5577 5579 5581 5588 5589 5591 5589 5596 5603 5607 5610 5615 5620 5625 5630 5634 5637 5640 5642 5645 5649 5653 5655 5657 5660 5661 5662 5662 5664 5663
5541 5541 5542 5544 5545 5547 5551 5554 5558 5560 5561 5563 5565 5566 5570 5573 5576 5577 5576 5579 5583 5586 5589 5594 5601 5604 5610 5616 5620 5624 5629 5631 5636 5640 5644 5648 5652 5654 5658 5658 5659 5660 5659
5529 5531 5533 5533 5535 5537 5540 5543 5547 5551 5552 5554 5556 5558 5560 5560 5563 5563 5563 5566 5569 5573 5575 5578 5586 5589 5596 5601 5606 5610 5614 5618 5625 5629 5634 5638 5643 5647 5650 5652 5654 5657 5655
5514 5516 5516 5517 5520 5523 5526 5530 5532 5536 5540 5542 5542 5544 5545 5547 5549 5550 5551 5555 5557 5561 5563 5565 5569 5573 5578 5585 5590 5596 5600 5606 5612 5617 5621 5626 5632 5636 5638 5643 5647 5651 5651
5500 5501 5502 5503 5505 5509 5511 5514 5518 5520 5524 5527 5528 5529 5531 5533 5535 5537 5539 5542 5545 5549 5551 5555 5560 5562 5564 5569 5575 5580 5587 5592 5599 5605 5607 5615 5619 5623 5627 5631 5635 5640 5642
5487 5487 5489 5490 5492 5494 5497 5499 5502 5507 5508 5510 5517 5516 5516 5518 5521 5523 5526 5529 5532 5536 5540 5544 5547 5551 5553 5556 5560 5567 5573 5579 5585 5593 5598 5600 5606 5610 5613 5618 5623 5628 5631
5473 5474 5475 5476 5477 5479 5481 5484 5486 5492 5492 5494 5504 5511 5514 5507 5507 5510 5513 5516 5520 5523 5527 5531 5534 5537 5541 5544 5545 5550 5556 5562 5569 5575 5582 5585 5592 5597 5600 5605 5609 5614 5618
5457 5459 5460 5461 5462 5463 5466 5468 5470 5474 5480 5479 5482 5492 5506 5517 5502 5497 5499 5502 5505 5510 5513 5517 5522 5524 5526 5529 5532 5538 5541 5546 5552 5558 5564 5569 5575 5581 5587 5589 5595 5601 5604
5440 5440 5442 5444 5445 5447 5449 5451 5453 5455 5460 5464 5466 5468 5472 5476 5490 5498 5489 5490 5492 5497 5501 5504 5506 5508 5511 5515 5519 5523 5526 5531 5536 5541 5547 5553 5560 5564 5570 5576 5581 5586 5591
5424 5423 5424 5425 5428 5429 5430 5433 5435 5438 5440 5444 5448 5451 5455 5459 5461 5469 5484 5483 5480 5480 5482 5486 5490 5495 5496 5500 5504 5509 5511 5516 5521 5527 5532 5538 5542 5548 5554 5560 5565 5570 5575
5407 5407 5406 5407 5408 5410 5411 5414 5416 5419 5422 5424 5427 5430 5435 5441 5445 5448 5453 5461 5461 5467 5468 5471 5474 5477 5479 5484 5487 5491 5496 5501 5506 5510 5514 5519 5526 5534 5538 5542 5546 5552 5559
5388 5388 5388 5388 5389 5390 5391 5393 5397 5399 5402 5406 5409 5412 5414 5417 5419 5423 5427 5435 5440 5446 5450 5455 5456 5458 5460 5465 5470 5474 5479 5483 5488 5492 5497 5505 5511 5514 5520 5524 5530 5537 5543
5370 5369 5369 5369 5370 5370 5371 5372 5375 5378 5381 5385 5388 5390 5394 5397 5399 5403 5407 5411 5419 5426 5430 5436 5438 5441 5443 5447 5451 5457 5463 5467 5472 5476 5481 5487 5493 5498 5504 5510 5515 5521 5526
5352 5352 5352 5353 5352 5352 5352 5354 5356 5359 5361 5363 5366 5370 5373 5376 5377 5380 5384 5390 5395 5405 5415 5416 5416 5419 5423 5428 5436 5441 5445 5450 5457 5460 5465 5470 5476 5480 5486 5493 5499 5507 5513
5339 5338 5339 5338 5338 5338 5337 5338 5340 5342 5344 5346 5348 5351 5354 5358 5360 5362 5366 5370 5374 5380 5388 5394 5396 5399 5402 5408 5415 5419 5425 5432 5437 5442 5448 5453 5458 5463 5469 5475 5481 5488 5494
5325 5324 5325 5325 5324 5323 5322 5323 5326 5328 5329 5331 5334 5336 5338 5341 5344 5348 5350 5352 5357 5361 5367 5373 5375 5379 5384 5390 5396 5403 5408 5414 5420 5425 5431 5436 5441 5445 5451 5458 5465 5471 5477
5310 5309 5309 5310 5311 5310 5309 5308 5309 5312 5313 5315 5318 5322 5323 5325 5328 5332 5334 5336 5340 5342 5347 5352 5354 5360 5367 5371 5376 5382 5388 5394 5400 5405 5410 5415 5421 5427 5434 5441 5447 5454 5460
5294 5293 5293 5294 5295 5294 5293 5292 5294 5296 5298 5298 5301 5303 5305 5308 5309 5311 5315 5318 5320 5322 5326 5329 5334 5338 5345 5351 5357 5362 5368 5374 5379 5383 5388 5394 5399 5406 5414 5421 5428 5434 5440
5279 5279 5277 5277 5276 5278 5276 5278 5279 5279 5280 5282 5283 5284 5285 5287 5289 5290 5293 5295 5297 5300 5303 5308 5311 5316 5324 5330 5336 5342 5347 5353 5360 5364 5369 5373 5378 5387 5394 5400 5407 5412 5417
5261 5261 5261 5261 5262 5261 5260 5262 5262 5261 5264 5266 5266 5267 5268 5268 5270 5270 5273 5275 5276 5280 5284 5288 5292 5296 5303 5307 5315 5321 5326 5333 5338 5341 5349 5354 5362 5369 5374 5378 5385 5389 5394
5250 5248 5247 5247 5247 5246 5245 5245 5245 5245 5249 5249 5250 5252 5252 5253 5254 5256 5258 5259 5259 5260 5266 5268 5274 5278 5285 5292 5293 5299 5305 5312 5319 5318 5328 5338 5339 5349 5353 5358 5363 5365 5371
5239 5237 5235 5234 5231 5229 5228 5227 5229 5236 5237 5238 5237 5237 5238 5239 5240 5242 5243 5246 5248 5249 5253 5254 5258 5261 5262 5269 5276 5280 5284 5291 5297 5301 5307 5318 5316 5329 5333 5338 5341 5344 5349
5223 5221 5220 5217 5216 5215 5214 5215 5218 5222 5223 5224 5223 5223 5223 5224 5226 5228 5230 5232 5234 5236 5239 5240 5245 5246 5248 5249 5253 5260 5268 5274 5281 5285 5285 5302 5298 5313 5313 5319 5324 5328 5332
5210 5208 5207 5205 5204 5204 5203 5203 5205 5207 5210 5210 5209 5210 5212 5213 5213 5214 5216 5218 5221 5225 5226 5228 5232 5234 5235 5235 5238 5242 5251 5256 5268 5274 5276 5285 5285 5297 5294 5308 5311 5313 5315
5198 5197 5196 5195 5193 5193 5193 5193 5193 5193 5194 5194 5195 5197 5198 5199 5199 5200 5202 5204 5208 5210 5213 5216 5219 5223 5223 5225 5226 5227 5233 5239 5246 5257 5254 5260 5265 5269 5286 5295 5297 5297 5299